User: anonymous   Login
Location: Elstree
(51.6403°N, 0.2969°W)
Time: 04:48:46
(UTC+00:00)
Language:

Cosmos 1937 Rocket - Orbit

View from above orbital plane
View from above orbital plane
View from above satellite
View from above satellite

Ground track
Ground track

The orbit data is extracted from the following two-line orbital elements,

1 19039U 88029B   21125.37737574  .00000014  00000-0  13083-4 0  9997
2 19039  74.0486 207.5573 0023285  26.2831 333.9499 14.38507718734473
Epoch (UTC): 05 May 2021 09:03:25
Eccentricity: 0.0023285
inclination: 74.0486°
perigee height: 747 km
apogee height: 780 km
right ascension of ascending node: 207.5573°
argument of perigee: 26.2831°
revolutions per day: 14.38507718
mean anomaly at epoch: 333.9499°
orbit number at epoch: 73447

The dashed part of the orbit path shows where the satellite is in the earth's shadow,  

DLR